FW1212 Weather Reports


time (UTC)temp
F
wind
direction
speed
knots
gust
knots
rain 1hr
in
rain 24hr
in
rain mn
in
humidity
%
barometer
mb
20260906063057 60 103 0.9 6.1 0.00 0.06 0.01 77 1014.2
20260906061559 60 157 3.5 8.7 0.00 0.06 0.01 77 1014.2
20260906060053 60 172 3.5 11.3 0.00 0.06 0.01 79 1014.2
20260906054602 58 161 5.2 11.3 0.00 0.06 0.01 80 1014.2
20260906053056 57 173 0.9 3.5 0.00 0.06 0.01 83 1014.1
20260906051606 57 164 1.7 7.8 0.00 0.06 0.01 83 1013.9
20260906050047 56 154 2.6 6.1 0.00 0.06 0.01 85 1014.0
20260906044551 55 181 0.0 5.2 0.00 0.06 0.01 89 1013.9
20260906043047 54 301 0.0 1.7 0.01 0.06 0.01 90 1013.9
20260906041543 53 301 0.0 0.9 0.01 0.06 0.01 90 1013.8
20260906040121 52 225 0.0 0.0 0.01 0.06 0.01 90 1013.6
20260906034543 52 240 0.0 0.0 0.01 0.06 0.01 90 1013.6
20260906033054 52 240 0.0 0.0 0.00 0.06 0.00 90 1013.6
20260906031540 52 240 0.0 0.0 0.00 0.06 0.00 90 1013.6
20260906030038 51 275 0.0 0.0 0.00 0.06 0.00 90 1013.6
20260906024537 51 269 0.0 0.0 0.00 0.06 0.00 90 1013.6
20260906023035 51 269 0.0 0.0 0.00 0.06 0.00 90 1013.5
20260906021533 51 269 0.0 0.0 0.00 0.06 0.00 89 1013.5
20260906020029 51 269 0.0 0.0 0.00 0.06 0.00 89 1013.4
20260906014530 51 269 0.0 0.0 0.00 0.06 0.00 89 1013.2
20260906013032 51 269 0.0 0.0 0.00 0.06 0.00 89 1013.2
20260906011528 51 250 0.0 0.0 0.00 0.06 0.00 89 1013.4
20260906010026 52 250 0.0 0.0 0.00 0.06 0.00 88 1013.3
20260906004526 52 250 0.0 0.0 0.00 0.06 0.00 88 1013.4
20260906003025 52 250 0.0 0.0 0.00 0.06 0.00 88 1013.4
20260906001525 52 250 0.0 0.0 0.00 0.06 0.00 88 1013.5
20260906000022 52 256 0.0 0.0 0.00 0.06 0.00 87 1013.5
20260905234521 52 258 0.0 0.0 0.00 0.06 0.00 87 1013.3
20260905233021 53 258 0.0 0.0 0.00 0.06 0.00 87 1013.3
20260905231520 53 258 0.0 1.7 0.00 0.06 0.00 87 1013.2
20260905230015 54 277 0.0 0.9 0.00 0.06 0.00 86 1013.3
20260905224527 54 277 0.0 0.0 0.00 0.06 0.00 86 1013.5
20260905223013 55 276 0.0 0.0 0.00 0.06 0.00 85 1013.5
20260905221509 56 276 0.0 0.0 0.00 0.06 0.00 84 1013.5
20260905220007 56 276 0.0 1.7 0.00 0.06 0.00 84 1013.6
20260905214505 56 264 0.0 2.6 0.00 0.06 0.00 83 1013.5
20260905213004 57 274 0.9 3.5 0.00 0.06 0.00 83 1013.5
20260905211506 57 277 0.0 2.6 0.00 0.06 0.00 84 1013.4
20260905210105 57 271 0.9 3.5 0.00 0.06 0.00 84 1013.3
20260905204558 58 283 0.0 2.6 0.00 0.06 0.06 84 1013.1
20260905203058 57 233 0.9 3.5 0.00 0.06 0.06 85 1013.0
20260905201558 57 280 0.0 0.0 0.00 0.06 0.06 86 1013.0
20260905200054 57 266 0.0 0.0 0.00 0.06 0.06 87 1013.0
20260905194554 58 254 0.0 0.0 0.01 0.06 0.06 86 1012.7
20260905193052 58 254 0.0 0.9 0.01 0.06 0.06 86 1012.7
20260905191557 59 194 0.0 0.9 0.01 0.06 0.06 86 1012.7
20260905190051 59 175 0.0 1.7 0.01 0.06 0.06 86 1012.8
20260905184559 59 183 0.0 0.9 0.00 0.05 0.05 85 1012.8
20260905183049 60 162 0.0 0.9 0.00 0.05 0.05 85 1012.6
20260905181549 60 227 0.0 0.9 0.00 0.05 0.05 85 1012.5
20260905180058 60 221 0.0 1.7 0.00 0.05 0.05 86 1012.5
20260905174548 61 221 0.0 0.9 0.00 0.05 0.05 87 1012.3
20260905173103 61 161 0.0 0.0 0.00 0.05 0.05 87 1012.1
20260905171546 61 161 0.0 0.9 0.00 0.05 0.05 86 1012.1
20260905170050 61 169 0.0 2.6 0.00 0.05 0.05 85 1011.8
20260905164543 62 174 0.0 2.6 0.00 0.05 0.05 84 1011.6
20260905163043 62 152 0.0 1.7 0.00 0.05 0.05 84 1011.4
20260905161600 62 152 0.9 2.6 0.01 0.05 0.05 84 1011.7
20260905160041 62 185 0.0 1.7 0.01 0.05 0.05 83 1011.4
20260905154545 62 195 0.0 1.7 0.03 0.05 0.05 83 1011.4
20260905153040 62 245 0.0 0.9 0.05 0.05 0.05 82 1011.7
20260905151540 62 245 0.0 2.6 0.04 0.04 0.04 80 1011.6
20260905150039 63 277 0.9 8.7 0.04 0.04 0.04 77 1011.7
20260905144538 66 175 1.7 9.6 0.02 0.02 0.02 70 1011.8
20260905143036 70 271 1.7 5.2 0.00 0.00 0.00 60 1011.7
20260905141534 72 66 1.7 8.7 0.00 0.00 0.00 55 1011.0
20260905140036 73 144 1.7 8.7 0.00 0.00 0.00 53 1011.0
20260905134535 74 261 1.7 7.0 0.00 0.00 0.00 49 1010.8
20260905133037 75 154 2.6 7.0 0.00 0.00 0.00 48 1010.7
20260905131531 76 170 4.3 11.3 0.00 0.00 0.00 48 1010.8
20260905130031 77 302 5.2 10.4 0.00 0.00 0.00 51 1010.3
20260905124530 79 289 1.7 8.7 0.00 0.00 0.00 54 1010.1
20260905123029 79 229 1.7 5.2 0.00 0.00 0.00 54 1010.0
20260905121529 80 194 1.7 9.6 0.00 0.00 0.00 53 1009.9
20260905120027 81 155 2.6 6.1 0.00 0.00 0.00 53 1009.9
20260905114528 81 185 3.5 12.2 0.00 0.00 0.00 52 1009.7
20260905113027 82 148 5.2 12.2 0.00 0.00 0.00 51 1009.6
20260905111526 83 152 4.3 12.2 0.00 0.00 0.00 51 1009.3
20260905110025 82 178 5.2 15.6 0.00 0.00 0.00 51 1009.4
20260905104525 83 166 4.3 13.9 0.00 0.00 0.00 50 1009.4
20260905103022 82 180 6.1 16.5 0.00 0.00 0.00 51 1009.3
20260905101525 81 127 3.5 14.8 0.00 0.00 0.00 52 1009.3
20260905100041 81 93 7.0 13.9 0.00 0.00 0.00 52 1009.4
20260905094520 82 204 7.0 12.2 0.00 0.00 0.00 50 1009.1
20260905093019 81 154 5.2 11.3 0.00 0.00 0.00 51 1009.3
20260905091516 81 190 6.1 13.0 0.00 0.00 0.00 52 1009.3
20260905090015 81 209 6.1 13.9 0.00 0.00 0.00 51 1009.1
20260905084512 80 151 7.0 11.3 0.00 0.00 0.00 53 1009.0
20260905083011 80 156 2.6 12.2 0.00 0.00 0.00 54 1008.9
20260905081509 80 224 1.7 12.2 0.00 0.00 0.00 55 1009.2
20260905080005 79 152 3.5 9.6 0.00 0.00 0.00 56 1009.1
20260905074626 78 175 1.7 8.7 0.00 0.00 0.00 59 1009.3
20260905073100 76 117 3.5 9.6 0.00 0.00 0.00 60 1009.5
20260905071555 75 158 3.5 7.8 0.00 0.00 0.00 62 1009.4
20260905070051 73 115 2.6 7.8 0.00 0.00 0.00 67 1009.4
20260905064602 71 152 1.7 7.8 0.00 0.00 0.00 68 1009.6